Regional Weather Roundup
Issued by NWS Cleveland, OH

Home | Current Version | Previous Version | Text Only | Print | Product List | Glossary Off
Versions: 1 2 3 4 5 6 7 8 9 10 11 12 13 14 15 16 17 18 19 20 21 22 23 24 25 26 27 28 29 30 31 32 33 34 35 36 37 38 39 40 41 42 43 44 45 46 47 48 49 50

000
ASUS41 KCLE 300202
RWRCLE
OHIO REGIONAL WEATHER ROUNDUP
NATIONAL WEATHER SERVICE CLEVELAND, OH
1000 PM EDT WED JUL 29 2015

NOTE: "FAIR" INDICATES FEW OR NO CLOUDS BELOW 12,000 FEET WITH NO
SIGNIFICANT WEATHER AND/OR OBSTRUCTIONS TO VISIBILITY.

OHZ001>008-015>018-024>027-034-035-043-044-300300-
   NORTHWEST OHIO

CITY           SKY/WX    TMP DP  RH WIND       PRES   REMARKS
DEFIANCE       CLEAR     75  61  61 NW6       29.96R
FINDLAY        PTCLDY    73  71  93 SW3       29.93R
TOLEDO EXPRESS CLEAR     76  74  93 W5        29.93R
TOLEDO EXEC    PTCLDY    77  72  84 SW6       29.92R
LIMA           MOCLDY    76  71  85 CALM      29.96R
$$

OHZ009>014-019>023-028>033-038-089-300300-
   NORTHEAST OHIO

CITY           SKY/WX    TMP DP  RH WIND       PRES   REMARKS
CLE-HOPKINS    CLOUDY    76  73  91 SW6       29.93S
CLE-LAKEFRONT  CLOUDY    79  72  79 S8        29.89F
CUY CO. ARPT   CLOUDY    79  75  89 SW7       29.92F
LORAIN-ELYRIA  MOCLDY    74  72  93 SW5       29.92F
ASHTABULA      CLOUDY    79  68  69 NW9       29.92R
AKRON-CANTON   LGT RAIN  80  72  76 NW13      29.95R
WOOSTER        CLOUDY    74  71  91 SW7       29.95S
MANSFIELD      CLOUDY    76  71  85 SW6       29.95F
YOUNGSTOWN     CLOUDY    80  69  69 S6        29.92F
$$

OHZ042-051>053-060>062-070>072-077>081-300300-
  SOUTHWEST OHIO

CITY           SKY/WX    TMP DP  RH WIND       PRES   REMARKS
CINC-COVINGTON CLOUDY    75  73  93 W5        29.99R
CINC-LUNKEN    CLOUDY    76  75  97 CALM      29.98R
HAMILTON       CLOUDY    77  74  90 CALM      29.98R
DAYTON         MOCLDY    77  75  93 SW7       29.99R
WRIGHT-PAT AFB MOCLDY    76  75  95 SW5       29.97R
DAYTON GENERAL CLOUDY    76  73  91 SW6       29.97R
WILMINGTON     CLOUDY    74  71  91 SW5       29.97S
$$

OHZ036-037-039>041-045>050-054>059-063>069-073>076-082>088-300300-
  CENTRAL AND SOUTHEAST OHIO

CITY           SKY/WX    TMP DP  RH WIND       PRES   REMARKS
COLUMBUS       CLOUDY    76  73  91 CALM      29.95R
OSU AIRPORT    MOCLDY    76  73  91 S5        29.95S
BOLTON FIELD   NOT AVBL
RICKENBACK AFB CLOUDY    74  73  98 SW3       29.95S FOG
NEWARK         CLOUDY    74  72  93 CALM      29.95S
MARION         CLOUDY    76  73  91 SW6       29.95F
LANCASTER      CLOUDY    75  72  90 CALM      29.96S
ZANESVILLE     LGT RAIN  78  70  76 W5        29.96R
NEW PHILLY     MOCLDY    77  74  90 SE5       29.94S FOG
$$


USA.gov is the U.S. government's official web portal to all federal, state and local government web resources and services.